SCP
0 0 0 0 0 0 0 0 0 0 0 0 0 0 0 0 0 0 0 0 0 0 0 0 0 0 0 0 0 0 0 0 0 0 0 0 0 0
0 0 0 0 0 0 0 0 0 0 0 0 0 0 0 0 0 0 0 0 0 0 0 0 0 0 0 0 0 0 0 0 0 0 0 0 0 0
0 0 0 0 0 0 0 0 0 0 0 0 0 0 0 0 0 0 0 0 0 0 0 0 0 0 0 0 0 0 0 0 0 0 0 0 0 0
0 0 0 0 0 0 0 0 0 0 0 0 0 0 0 0 0 0 0 0 0 0 0 0 0 0 0 0 0 0 0 0 0 0 0 0 0 0
0 0 0 0 0 0 0 0 0 0 0 0 0 0 0 0 0 0 0 0 0 0 0 0 0 0 0 0 0 0 0 0 0 0 0 0 0 0
0 0 0 0 0 0 0 0 0 0 0 0 0 0 0 0 0 0 0 0 0 0 0 0 0 0 0 0 0 0 0 0 0 0 0 0 0 0
0 0 0 0 0 0 0 0 0 0 0 0 0 0 0 0 0 0 0 0 0 0 0 0 0 0 0 0 0 0 0 0 0 0 0 0 0 0
0 0 0 0 0 0 0 0 0 0 0 0 0 0 0 0 0 0 0 0 0 0 0 0 0 0 0 0 0 0 0 0 0 0 0 0 0 0
0 0 0 0 0 0 0 0 0 0 0 0 0 0 0 0 0 0 0 0 0 0 0 0 0 0 0 0 0 0 0 0 0 0 0 0 0 0
0 0 0 0 0 0 0 0 0 0 0 0 0 0 0 0 0 0 0 0 0 0 0 0 0 0 0 0 0 0 0 0 0 0 0 0 0 0
0 0 0 0 0 0 0 0 0 0 0 0 0 0 0 0 0 0 0 0 0 0 0 0 0 0 0 0 0 0 0 0 0 0 0 0 0 0
0 0 0 0 0 0 0 0 0 0 0 0 0 0 0 0 0 0 0 0 0 0 0 0 0 0 0 0 0 0 0 0 0 0 0 0 0 0
0 0 0 0 0 0 0 0 0 0 0 0 0 0 0 0 0 0 0 0 0 0 0 0 0 0 0 0 0 0 0 0 0 0 0 0 0 0
0 0 0 0 0 0 0 0 0 0 0 0 0 0 0 0 0 0 0 0 0 0 0 0 0 0 0 0 0 0 0 0 0 0 0 0 0 0
0 0 0 0 0 0 0 0 0 0 0 0 0 0 0 0 0 0 0 0 0 0 0 0 0 0 0 0 0 0 0 0 0 0 0 0 0 0
0 0 0 0 0 0 0 0 0 0 0 0 0 0 0 0 0 0 0 0 0 0 0 0 0 0 0 0 0 0 0 0 0 0 0 0 0 0
0 0 0 0 0 0 0 0 0 0 0 0 0 0 0 0 0 0 0 0 0 0 0 0 0 0 0 0 0 0 0 0 0 0 0 0 0 0
0 0 0 0 0 0 0 0 0 0 0 0 0 0 0 0 0 0 0 0 0 0 0 0 0 0 0 0 0 0 0 0 0 0 0 0 0 0
0 0 0 0 0 0 0 0 0 0 0 0 0 0 0 0 0 0 0 0 0 0 0 0 0 0 0 0 0 0 0 0 0 0 0 0 0 0
0 0 0 0 0 0 0 0 0 0 0 0 0 0 0 0 0 0 0 0 0 0 0 0 0 0 0 0 0 0 0 0 0 0 0 0 0 0
0 0 0 0 0 0 0 0 0 0 0 0 0 0 0 0 0 0 0 0 0 0 0 0 0 0 0 0 0 0 0 0 0 0 0 0 0 0
0 -0 -0 0 0 0 0 -0 -0 0 0 0 0 0 0 0 0 0 0 0 0 0 0 0 0 0 0 0 0 0 0 0 0 0 0 0 0 0
0 0 -0 0 0 0 0 0 0 0 0 0 0 0 0 0 0 0 0 0 0 0 0 0 0 0 0 0 0 0 0 0 0 0 0 0 0 0
Wind_Speed_500mb
70 73 75 80 86 89 91 97 96 84 87 85 83 84 77 74 72 74 73 66 66 62 61 59 56 51 48 47 46 44 43 42 41 40 41 41 40 40
63 68 73 74 78 82 91 94 97 102 97 86 82 79 79 78 74 74 73 73 72 70 67 66 63 58 55 53 50 47 46 45 44 43 43 43 43 41
54 59 68 69 75 77 81 88 99 101 111 99 98 91 85 82 77 75 75 76 78 77 74 72 70 65 62 59 55 54 51 49 48 46 46 45 43 43
50 52 62 64 73 76 77 83 87 92 102 106 98 102 105 102 94 87 81 80 81 81 81 79 78 73 68 67 64 59 55 54 52 47 46 45 46 46
50 54 59 60 69 75 80 82 84 86 91 98 100 96 100 99 99 94 91 88 85 83 86 87 85 79 76 73 70 64 58 56 53 49 48 48 48 49
57 55 57 61 66 69 75 81 81 85 87 91 97 100 105 110 106 103 104 99 93 91 94 94 91 88 84 82 77 72 64 58 54 52 51 51 49 50
75 71 64 61 63 65 69 76 79 84 87 94 96 93 104 109 118 115 110 103 102 100 99 101 101 99 96 91 86 79 71 64 59 55 54 53 50 50
85 85 83 75 68 66 66 69 76 84 89 91 96 98 106 106 112 120 114 113 110 114 109 108 106 109 106 101 92 84 77 70 65 60 59 58 54 51
99 98 95 91 84 77 71 70 70 76 90 94 97 107 90 90 98 109 120 123 128 119 108 115 116 119 110 106 98 89 83 78 73 66 62 60 58 53
107 107 107 106 99 92 84 80 80 77 80 85 107 112 103 91 92 96 103 109 121 121 111 112 119 120 116 113 102 97 92 84 82 73 67 64 60 55
112 113 112 116 117 105 95 94 90 89 84 80 82 93 110 92 94 87 92 100 107 119 118 110 114 105 115 116 108 104 97 92 86 79 71 67 62 57
111 115 111 102 105 92 87 99 100 100 90 86 84 84 83 111 98 101 103 108 109 83 115 115 107 99 88 107 113 106 100 96 89 83 75 69 64 62
92 94 92 86 86 88 87 94 106 100 92 79 83 85 82 79 101 109 111 104 102 105 96 89 92 97 85 69 106 110 105 98 94 85 80 71 67 65
95 97 99 95 91 91 89 92 92 89 83 79 82 88 89 86 81 91 126 117 109 101 92 87 84 105 111 86 71 107 109 99 92 92 84 71 73 66
80 92 88 89 85 93 94 96 90 85 83 80 87 98 98 91 81 79 89 109 111 106 101 96 86 84 95 104 101 87 111 107 98 90 81 74 71 68
89 89 83 80 80 81 97 84 88 87 80 78 83 92 94 90 84 84 85 95 96 97 96 94 90 93 89 102 102 95 98 113 105 92 78 70 69 66
87 90 85 81 79 87 64 78 71 83 86 85 81 86 90 89 89 84 87 88 92 86 87 90 91 87 88 89 94 94 99 103 89 86 75 73 75 71
81 84 82 80 76 72 75 62 62 64 79 79 79 79 82 91 87 83 84 92 87 82 88 90 90 85 83 80 89 95 97 90 72 71 75 72 70 61
75 79 84 81 75 67 67 68 67 55 56 65 73 79 87 92 87 87 89 90 87 89 92 91 93 96 85 79 80 70 76 74 74 70 69 70 63 59
77 83 80 77 63 64 61 57 64 61 56 56 67 80 84 87 86 89 92 92 85 88 87 90 95 98 93 82 78 73 68 70 72 73 71 63 57 55
75 71 73 68 62 75 63 67 67 69 66 59 61 72 80 83 87 91 94 94 88 86 85 89 91 82 86 73 68 68 64 63 60 58 52 49 49 53
60 59 56 55 55 57 62 64 72 73 67 60 65 68 73 78 85 88 87 88 89 86 79 73 73 76 84 78 63 63 64 55 48 48 47 46 39 28
56 48 27 34 42 44 45 55 62 59 54 56 62 66 70 73 76 77 82 80 80 77 75 67 67 69 69 62 57 57 56 51 46 39 40 37 36 39
Wind_Direction_500mb
262 263 261 262 262 261 259 259 258 261 261 258 256 263 261 255 254 252 251 246 244 242 242 241 239 240 239 240 242 246 250 255 257 257 257 255 252 249
265 263 264 263 262 260 260 260 258 258 261 261 261 262 264 263 257 254 254 248 245 242 240 240 238 237 238 240 244 248 251 252 252 253 254 254 253 249
271 267 267 267 266 264 261 257 258 257 258 260 261 260 258 256 253 253 253 250 244 241 240 239 238 237 237 240 243 247 251 252 251 250 252 252 251 250
294 285 275 270 269 268 264 264 259 256 259 260 259 258 259 258 256 252 252 251 247 241 240 238 237 236 237 238 241 243 247 250 252 250 250 249 250 248
300 296 290 283 276 270 268 264 263 262 259 259 258 258 256 255 251 247 244 245 245 244 241 238 236 235 237 239 241 242 243 246 249 251 248 248 247 249
298 292 290 289 283 279 274 268 266 264 263 260 258 255 256 254 251 246 242 241 241 240 239 239 236 234 235 236 238 240 241 243 245 246 247 246 246 248
291 291 289 286 285 284 277 271 268 265 261 261 258 251 250 247 245 244 241 242 242 241 239 237 236 234 233 234 236 238 240 241 242 244 246 245 245 245
287 285 285 284 282 282 280 277 267 261 261 258 256 250 251 249 247 245 244 236 235 237 236 238 237 236 235 234 234 236 237 240 240 241 242 244 241 238
286 284 282 281 280 279 279 278 273 265 254 254 254 252 248 246 247 244 243 245 245 245 240 239 237 237 236 235 234 234 235 236 239 238 239 240 238 235
281 280 280 278 276 277 279 278 275 272 265 257 247 252 253 249 249 252 256 257 251 246 243 239 242 240 237 234 233 232 233 233 236 234 235 236 236 236
283 279 276 276 276 274 274 275 275 274 272 267 260 257 248 247 248 249 242 239 239 240 237 237 238 237 235 233 230 231 230 231 231 233 231 233 235 236
283 281 278 273 273 269 264 268 270 271 274 274 269 261 254 248 235 243 245 238 237 240 240 233 232 233 227 230 227 226 226 228 228 228 227 229 230 236
283 282 279 276 270 265 261 260 263 269 270 264 264 264 262 255 244 233 239 232 232 233 242 241 226 227 219 225 224 220 223 222 222 221 222 222 227 234
280 281 279 274 270 267 261 257 257 260 258 256 254 255 261 260 254 244 238 239 232 234 240 240 237 231 226 221 216 216 216 218 219 218 219 219 222 231
285 280 275 277 275 265 261 253 251 251 249 247 248 253 254 260 258 253 246 241 237 232 229 232 238 237 230 225 220 215 209 212 215 216 218 220 222 231
297 296 295 280 275 276 262 256 245 244 245 246 246 250 254 254 252 249 242 238 234 233 234 234 233 231 234 229 226 222 228 214 211 210 210 215 221 230
292 289 287 285 281 281 275 243 238 242 249 249 246 245 247 247 248 247 239 236 229 222 219 221 224 224 224 226 228 225 219 206 205 201 205 218 229 233
287 282 280 277 274 277 279 267 259 255 249 244 239 239 240 242 240 234 231 230 223 217 220 220 220 217 220 223 218 211 205 197 195 201 214 225 226 228
288 283 275 273 270 268 273 269 255 255 258 252 244 239 239 239 237 228 224 223 215 220 226 228 222 219 209 209 212 203 201 196 211 219 225 223 228 234
296 286 278 266 268 262 260 257 263 258 261 256 247 242 237 237 226 219 219 219 210 216 218 222 224 220 213 203 204 209 213 219 217 217 221 224 227 231
311 306 292 280 266 256 256 253 249 254 259 258 247 241 240 235 229 223 224 222 212 214 214 222 228 229 214 209 213 211 211 214 216 216 215 221 232 240
328 310 287 283 277 258 262 255 245 250 253 256 247 243 241 236 229 219 216 211 211 217 217 219 219 219 214 211 208 197 191 201 200 208 220 229 239 242
356 356 323 305 299 294 273 260 243 254 262 254 247 243 235 226 220 217 216 211 207 208 213 207 206 208 205 205 203 191 192 201 211 218 229 239 250 263
Wind_Speed_850mb
70 73 75 80 86 89 91 97 96 84 87 85 83 84 77 74 72 74 73 66 66 62 61 59 56 51 48 47 46 44 43 42 41 40 41 41 40 40
63 68 73 74 78 82 91 94 97 102 97 86 82 79 79 78 74 74 73 73 72 70 67 66 63 58 55 53 50 47 46 45 44 43 43 43 43 41
54 59 68 69 75 77 81 88 99 101 111 99 98 91 85 82 77 75 75 76 78 77 74 72 70 65 62 59 55 54 51 49 48 46 46 45 43 43
50 52 62 64 73 76 77 83 87 92 102 106 98 102 105 102 94 87 81 80 81 81 81 79 78 73 68 67 64 59 55 54 52 47 46 45 46 46
50 54 59 60 69 75 80 82 84 86 91 98 100 96 100 99 99 94 91 88 85 83 86 87 85 79 76 73 70 64 58 56 53 49 48 48 48 49
57 55 57 61 66 69 75 81 81 85 87 91 97 100 105 110 106 103 104 99 93 91 94 94 91 88 84 82 77 72 64 58 54 52 51 51 49 50
75 71 64 61 63 65 69 76 79 84 87 94 96 93 104 109 118 115 110 103 102 100 99 101 101 99 96 91 86 79 71 64 59 55 54 53 50 50
85 85 83 75 68 66 66 69 76 84 89 91 96 98 106 106 112 120 114 113 110 114 109 108 106 109 106 101 92 84 77 70 65 60 59 58 54 51
99 98 95 91 84 77 71 70 70 76 90 94 97 107 90 90 98 109 120 123 128 119 108 115 116 119 110 106 98 89 83 78 73 66 62 60 58 53
107 107 107 106 99 92 84 80 80 77 80 85 107 112 103 91 92 96 103 109 121 121 111 112 119 120 116 113 102 97 92 84 82 73 67 64 60 55
112 113 112 116 117 105 95 94 90 89 84 80 82 93 110 92 94 87 92 100 107 119 118 110 114 105 115 116 108 104 97 92 86 79 71 67 62 57
111 115 111 102 105 92 87 99 100 100 90 86 84 84 83 111 98 101 103 108 109 83 115 115 107 99 88 107 113 106 100 96 89 83 75 69 64 62
92 94 92 86 86 88 87 94 106 100 92 79 83 85 82 79 101 109 111 104 102 105 96 89 92 97 85 69 106 110 105 98 94 85 80 71 67 65
95 97 99 95 91 91 89 92 92 89 83 79 82 88 89 86 81 91 126 117 109 101 92 87 84 105 111 86 71 107 109 99 92 92 84 71 73 66
80 92 88 89 85 93 94 96 90 85 83 80 87 98 98 91 81 79 89 109 111 106 101 96 86 84 95 104 101 87 111 107 98 90 81 74 71 68
89 89 83 80 80 81 97 84 88 87 80 78 83 92 94 90 84 84 85 95 96 97 96 94 90 93 89 102 102 95 98 113 105 92 78 70 69 66
87 90 85 81 79 87 64 78 71 83 86 85 81 86 90 89 89 84 87 88 92 86 87 90 91 87 88 89 94 94 99 103 89 86 75 73 75 71
81 84 82 80 76 72 75 62 62 64 79 79 79 79 82 91 87 83 84 92 87 82 88 90 90 85 83 80 89 95 97 90 72 71 75 72 70 61
75 79 84 81 75 67 67 68 67 55 56 65 73 79 87 92 87 87 89 90 87 89 92 91 93 96 85 79 80 70 76 74 74 70 69 70 63 59
77 83 80 77 63 64 61 57 64 61 56 56 67 80 84 87 86 89 92 92 85 88 87 90 95 98 93 82 78 73 68 70 72 73 71 63 57 55
75 71 73 68 62 75 63 67 67 69 66 59 61 72 80 83 87 91 94 94 88 86 85 89 91 82 86 73 68 68 64 63 60 58 52 49 49 53
60 59 56 55 55 57 62 64 72 73 67 60 65 68 73 78 85 88 87 88 89 86 79 73 73 76 84 78 63 63 64 55 48 48 47 46 39 28
56 48 27 34 42 44 45 55 62 59 54 56 62 66 70 73 76 77 82 80 80 77 75 67 67 69 69 62 57 57 56 51 46 39 40 37 36 39
Wind_Direction_850mb
262 263 261 262 262 261 259 259 258 261 261 258 256 263 261 255 254 252 251 246 244 242 242 241 239 240 239 240 242 246 250 255 257 257 257 255 252 249
265 263 264 263 262 260 260 260 258 258 261 261 261 262 264 263 257 254 254 248 245 242 240 240 238 237 238 240 244 248 251 252 252 253 254 254 253 249
271 267 267 267 266 264 261 257 258 257 258 260 261 260 258 256 253 253 253 250 244 241 240 239 238 237 237 240 243 247 251 252 251 250 252 252 251 250
294 285 275 270 269 268 264 264 259 256 259 260 259 258 259 258 256 252 252 251 247 241 240 238 237 236 237 238 241 243 247 250 252 250 250 249 250 248
300 296 290 283 276 270 268 264 263 262 259 259 258 258 256 255 251 247 244 245 245 244 241 238 236 235 237 239 241 242 243 246 249 251 248 248 247 249
298 292 290 289 283 279 274 268 266 264 263 260 258 255 256 254 251 246 242 241 241 240 239 239 236 234 235 236 238 240 241 243 245 246 247 246 246 248
291 291 289 286 285 284 277 271 268 265 261 261 258 251 250 247 245 244 241 242 242 241 239 237 236 234 233 234 236 238 240 241 242 244 246 245 245 245
287 285 285 284 282 282 280 277 267 261 261 258 256 250 251 249 247 245 244 236 235 237 236 238 237 236 235 234 234 236 237 240 240 241 242 244 241 238
286 284 282 281 280 279 279 278 273 265 254 254 254 252 248 246 247 244 243 245 245 245 240 239 237 237 236 235 234 234 235 236 239 238 239 240 238 235
281 280 280 278 276 277 279 278 275 272 265 257 247 252 253 249 249 252 256 257 251 246 243 239 242 240 237 234 233 232 233 233 236 234 235 236 236 236
283 279 276 276 276 274 274 275 275 274 272 267 260 257 248 247 248 249 242 239 239 240 237 237 238 237 235 233 230 231 230 231 231 233 231 233 235 236
283 281 278 273 273 269 264 268 270 271 274 274 269 261 254 248 235 243 245 238 237 240 240 233 232 233 227 230 227 226 226 228 228 228 227 229 230 236
283 282 279 276 270 265 261 260 263 269 270 264 264 264 262 255 244 233 239 232 232 233 242 241 226 227 219 225 224 220 223 222 222 221 222 222 227 234
280 281 279 274 270 267 261 257 257 260 258 256 254 255 261 260 254 244 238 239 232 234 240 240 237 231 226 221 216 216 216 218 219 218 219 219 222 231
285 280 275 277 275 265 261 253 251 251 249 247 248 253 254 260 258 253 246 241 237 232 229 232 238 237 230 225 220 215 209 212 215 216 218 220 222 231
297 296 295 280 275 276 262 256 245 244 245 246 246 250 254 254 252 249 242 238 234 233 234 234 233 231 234 229 226 222 228 214 211 210 210 215 221 230
292 289 287 285 281 281 275 243 238 242 249 249 246 245 247 247 248 247 239 236 229 222 219 221 224 224 224 226 228 225 219 206 205 201 205 218 229 233
287 282 280 277 274 277 279 267 259 255 249 244 239 239 240 242 240 234 231 230 223 217 220 220 220 217 220 223 218 211 205 197 195 201 214 225 226 228
288 283 275 273 270 268 273 269 255 255 258 252 244 239 239 239 237 228 224 223 215 220 226 228 222 219 209 209 212 203 201 196 211 219 225 223 228 234
296 286 278 266 268 262 260 257 263 258 261 256 247 242 237 237 226 219 219 219 210 216 218 222 224 220 213 203 204 209 213 219 217 217 221 224 227 231
311 306 292 280 266 256 256 253 249 254 259 258 247 241 240 235 229 223 224 222 212 214 214 222 228 229 214 209 213 211 211 214 216 216 215 221 232 240
328 310 287 283 277 258 262 255 245 250 253 256 247 243 241 236 229 219 216 211 211 217 217 219 219 219 214 211 208 197 191 201 200 208 220 229 239 242
356 356 323 305 299 294 273 260 243 254 262 254 247 243 235 226 220 217 216 211 207 208 213 207 206 208 205 205 203 191 192 201 211 218 229 239 250 263